Crescent City, CA

2:56 AM PDT on September 24, 2017 (GMT -0700)
McNamara

Weather History for KCEC - May, 2013

Change the Weather History Date:

Saturday, May 18, 2013

  Actual Average Record
Temperature  
Mean Temperature 52 °F 53 °F  
Max Temperature 57 °F 58 °F 79 °F (1966)
Min Temperature 46 °F 47 °F 34 °F (1950)
Degree Days  
Heating Degree Days 14 12  
Month to date heating degree days 241  
Since 1 July heating degree days 4398  
Cooling Degree Days 0 0  
Month to date cooling degree days 0  
Year to date cooling degree days 0  
Moisture  
Dew Point 48 °F    
Average Humidity 83    
Maximum Humidity 93    
Minimum Humidity 72    
Precipitation  
Precipitation 0.02 in 0.09 in 2.00 in (1981)
Month to date precipitation 0.46 1.92  
Year to date precipitation 16.77 34.25  
Since 1 July precipitation 50.47  
Snow  
Snow 0.00 in - - ()
Month to date snowfall 0.0  
Since 1 July snowfall 0.0  
Snow Depth -    
Sea Level Pressure  
Sea Level Pressure 30.25 in    
Wind  
Wind Speed 3 mph (WNW)    
Max Wind Speed 9 mph    
Max Gust Speed 12 mph    
Visibility 10 miles    
Events Rain    
T = Trace of Precipitation, MM = Missing Value Source: NWS Daily Summary

Daily Weather History Graph

Daily Weather History Graph

Search for Another Location

Airport or City:

Trip Planner

Search our weather history database for the weather conditions in past years. The results will help you decide how hot, cold, wet, or windy it might be!

Date:

Astronomy

May. 18, 2013 Rise Set
Actual Time 5:53 AM PDT 8:33 PM PDT
Civil Twilight 5:21 AM PDT 9:05 PM PDT
Nautical Twilight 4:41 AM PDT 9:46 PM PDT
Astronomical Twilight 3:55 AM PDT 10:32 PM PDT
Moon 1:36 PM PDT (5/18) 1:55 AM PDT (5/18)
Length of Visible Light 15h 43m
Length of Day
14h 39m
First Quarter, 56% of the Moon is Illuminated
May 18
First Quarter
May 24
Full
May 31
Last Quarter
Jun 8
New
Jun 16
First Quarter

Hourly Weather History & Observations

Time (PDT) Temp. Dew Point Humidity Pressure Visibility Wind Dir Wind Speed Gust Speed Precip Events Conditions
12:20 AM 50.0 °F 48.2 °F 94% 30.18 in 10.0 mi Calm Calm - N/A   Partly Cloudy
12:52 AM 48.2 °F 48.2 °F 100% 30.18 in 10.0 mi Calm Calm - N/A   Mostly Cloudy
12:56 AM 48.9 °F 46.9 °F 93% 30.18 in 10.0 mi Calm Calm - N/A   Mostly Cloudy
1:13 AM 50.0 °F 46.4 °F 87% 30.17 in 10.0 mi Calm Calm - N/A   Scattered Clouds
1:56 AM 50.0 °F 46.9 °F 89% 30.18 in 10.0 mi Calm Calm - N/A   Clear
2:56 AM 46.9 °F 45.0 °F 93% 30.18 in 10.0 mi Calm Calm - N/A   Clear
3:56 AM 48.0 °F 45.0 °F 89% 30.18 in 10.0 mi Calm Calm - N/A   Clear
4:56 AM 48.0 °F 45.0 °F 89% 30.18 in 10.0 mi East 4.6 mph - N/A   Overcast
5:56 AM 48.9 °F 46.0 °F 90% 30.18 in 10.0 mi Calm Calm - N/A   Overcast
6:56 AM 50.0 °F 48.0 °F 93% 30.20 in 10.0 mi Calm Calm - N/A   Overcast
7:56 AM 52.0 °F 48.9 °F 89% 30.22 in 10.0 mi SSE 5.8 mph - N/A   Overcast
8:56 AM 53.1 °F 48.9 °F 86% 30.23 in 6.0 mi SSE 5.8 mph - 0.02 in Rain Rain
9:56 AM 53.1 °F 50.0 °F 89% 30.23 in 10.0 mi SSE 6.9 mph - 0.00 in Rain Light Rain
10:56 AM 55.9 °F 53.1 °F 90% 30.24 in 10.0 mi South 6.9 mph - 0.00 in   Overcast
11:56 AM 55.0 °F 51.1 °F 86% 30.25 in 10.0 mi South 6.9 mph - N/A   Overcast
12:13 PM 55.4 °F 51.8 °F 88% 30.25 in 10.0 mi South 5.8 mph - N/A   Overcast
12:56 PM 55.9 °F 50.0 °F 80% 30.26 in 10.0 mi SSW 8.1 mph - N/A   Overcast
1:56 PM 55.0 °F 50.0 °F 83% 30.28 in 8.0 mi WSW 4.6 mph - 0.00 in   Overcast
2:56 PM 55.9 °F 48.9 °F 77% 30.28 in 10.0 mi SSW 6.9 mph - N/A   Overcast
3:56 PM 55.9 °F 46.9 °F 72% 30.29 in 10.0 mi Calm Calm - N/A   Overcast
4:56 PM 55.0 °F 48.9 °F 80% 30.30 in 10.0 mi Calm Calm - N/A   Overcast
5:18 PM 55.4 °F 48.2 °F 77% 30.30 in 10.0 mi WNW 4.6 mph - N/A   Overcast
5:56 PM 55.0 °F 48.9 °F 80% 30.30 in 10.0 mi NW 3.5 mph - N/A   Overcast
6:20 PM 55.4 °F 50.0 °F 82% 30.29 in 10.0 mi Variable 3.5 mph - N/A   Mostly Cloudy
6:35 PM 55.4 °F 48.2 °F 77% 30.30 in 10.0 mi NNW 5.8 mph - N/A   Mostly Cloudy
6:56 PM 54.0 °F 48.0 °F 80% 30.30 in 10.0 mi NNW 4.6 mph - N/A   Scattered Clouds
7:01 PM 53.6 °F 48.2 °F 82% 30.30 in 10.0 mi NNW 6.9 mph - N/A   Mostly Cloudy
7:17 PM 53.6 °F 48.2 °F 82% 30.30 in 10.0 mi NNW 5.8 mph - N/A   Overcast
7:56 PM 54.0 °F 48.9 °F 83% 30.31 in 10.0 mi NNW 5.8 mph - N/A   Overcast
8:42 PM 51.8 °F 48.2 °F 88% 30.31 in 10.0 mi NNW 6.9 mph - N/A   Scattered Clouds
8:56 PM 51.1 °F 48.0 °F 89% 30.32 in 10.0 mi NNW 5.8 mph - N/A   Partly Cloudy
9:56 PM 51.1 °F 48.0 °F 89% 30.33 in 9.0 mi NNW 6.9 mph - N/A   Partly Cloudy
10:56 PM 51.1 °F 48.9 °F 92% 30.33 in 8.0 mi North 8.1 mph - N/A   Clear
11:56 PM 50.0 °F 48.0 °F 93% 30.32 in 7.0 mi NNW 10.4 mph - 0.01 in   Clear